Paso Robles, CA

5:03 AM PST on February 26, 2017 (GMT -0800)
Paso Robles Municipal

Weather History for KPRB - February, 2013

Change the Weather History Date:

Wednesday, February 20, 2013

  Actual Average Record
Temperature  
Mean Temperature 44 °F 51 °F  
Max Temperature 57 °F 63 °F 80 °F (1991)
Min Temperature 30 °F 39 °F 19 °F (1953)
Degree Days  
Heating Degree Days 21 14  
Month to date heating degree days 347 308  
Since 1 July heating degree days 1875 1984  
Cooling Degree Days 0 0  
Month to date cooling degree days 0 0  
Year to date cooling degree days 0 0  
Moisture  
Dew Point 34 °F    
Average Humidity 70    
Maximum Humidity 100    
Minimum Humidity 40    
Precipitation  
Precipitation 0.01 in 0.10 in 0.80 in (1979)
Month to date precipitation 0.27 1.80  
Year to date precipitation 0.96 4.55  
Since 1 July precipitation 4.17  
Sea Level Pressure  
Sea Level Pressure 29.94 in    
Wind  
Wind Speed 6 mph (NW)    
Max Wind Speed 17 mph    
Max Gust Speed 23 mph    
Visibility 10 miles    
Events      
T = Trace of Precipitation, MM = Missing Value Source: NWS Daily Summary

Daily Weather History Graph

Daily Weather History Graph

Search for Another Location

Airport or City:

Trip Planner

Search our weather history database for the weather conditions in past years. The results will help you decide how hot, cold, wet, or windy it might be!

Date:

Astronomy

Feb. 20, 2013 Rise Set
Actual Time 6:43 AM PST 5:49 PM PST
Civil Twilight 6:17 AM PST 6:15 PM PST
Nautical Twilight 5:47 AM PST 6:45 PM PST
Astronomical Twilight 5:18 AM PST 7:14 PM PST
Moon 1:21 PM PST (2/20) 3:01 AM PST (2/20)
Length of Visible Light 11h 58m
Length of Day
11h 06m
Waxing Gibbous, 77% of the Moon is Illuminated
Feb 20
Waxing Gibbous
Feb 25
Full
Mar 4
Last Quarter
Mar 11
New
Mar 19
First Quarter

Hourly Weather History & Observations

Time (PST) Temp. Windchill Dew Point Humidity Pressure Visibility Wind Dir Wind Speed Gust Speed Precip Events Conditions
12:53 AM 35.1 °F - 34.0 °F 96% 29.82 in 10.0 mi Calm Calm - 0.01 in   Mostly Cloudy
1:53 AM 34.0 °F 31.0 °F 34.0 °F 100% 29.82 in 10.0 mi SSW 3.5 mph - N/A   Mostly Cloudy
2:53 AM 33.1 °F 26.9 °F 32.0 °F 96% 29.83 in 10.0 mi West 6.9 mph - N/A   Clear
3:53 AM 33.1 °F 30.0 °F 30.9 °F 92% 29.84 in 10.0 mi West 3.5 mph - N/A   Clear
4:53 AM 32.0 °F - 30.9 °F 96% 29.87 in 10.0 mi Calm Calm - N/A   Clear
5:53 AM 32.0 °F - 30.0 °F 92% 29.89 in 10.0 mi Calm Calm - N/A   Clear
6:53 AM 30.9 °F 27.5 °F 30.0 °F 96% 29.91 in 10.0 mi SSW 3.5 mph - N/A   Partly Cloudy
8:53 AM 37.0 °F 34.5 °F 34.0 °F 89% 29.96 in 10.0 mi WSW 3.5 mph - N/A   Clear
9:53 AM 42.1 °F - 35.1 °F 76% 29.98 in 10.0 mi Calm Calm - N/A   Clear
10:53 AM 46.0 °F 43.1 °F 37.0 °F 71% 29.99 in 10.0 mi WNW 5.8 mph - N/A   Clear
11:53 AM 48.0 °F - 37.0 °F 66% 29.98 in 10.0 mi ENE 3.5 mph - N/A   Partly Cloudy
12:28 PM 51.8 °F - 35.6 °F 54% 29.95 in 10.0 mi NW 11.5 mph - N/A   Clear
12:53 PM 53.1 °F - 36.0 °F 52% 29.95 in 10.0 mi NW 10.4 mph - N/A   Partly Cloudy
1:53 PM 55.0 °F - 33.1 °F 43% 29.94 in 10.0 mi NW 17.3 mph 23.0 mph N/A   Clear
2:53 PM 55.9 °F - 34.0 °F 44% 29.94 in 10.0 mi NW 15.0 mph - N/A   Clear
3:53 PM 57.0 °F - 34.0 °F 42% 29.94 in 10.0 mi NNW 17.3 mph - N/A   Clear
4:53 PM 55.0 °F - 34.0 °F 45% 29.95 in 10.0 mi NNW 16.1 mph 21.9 mph N/A   Clear
5:53 PM 51.1 °F - 35.1 °F 54% 29.97 in 10.0 mi North 11.5 mph - N/A   Clear
6:53 PM 50.0 °F - 36.0 °F 59% 30.01 in 10.0 mi NE 3.5 mph - N/A   Mostly Cloudy
7:53 PM 46.0 °F 41.9 °F 37.0 °F 71% 30.02 in 10.0 mi East 8.1 mph - N/A   Clear
8:53 PM 45.0 °F 43.5 °F 36.0 °F 71% 30.04 in 10.0 mi West 3.5 mph - N/A   Clear
9:53 PM 42.1 °F 39.2 °F 37.0 °F 82% 30.05 in 10.0 mi NNW 4.6 mph - N/A   Clear
11:53 PM 39.0 °F - 36.0 °F 89% 30.07 in 10.0 mi Calm Calm - N/A   Clear